Regional Weather Roundup
Issued by NWS

Home | Current Version | Previous Version | Graphics & Text | Print | Product List | Glossary On
Versions: 1 2 3 4 5 6 7 8 9 10 11 12 13 14 15 16 17 18 19 20 21 22 23 24 25 26 27 28 29 30 31 32 33 34 35 36 37 38 39 40 41 42 43 44 45 46 47 48 49 50
000
ASUS43 KDTX 292010
RWRMI
MICHIGAN HOURLY REGIONAL WEATHER ROUNDUP
NATIONAL WEATHER SERVICE DETROIT/PONTIAC MI
400 PM EDT WED OCT 29 2014

NOTE: "FAIR" INDICATES FEW OR NO CLOUDS BELOW 12,000 FEET WITH NO
SIGNIFICANT WEATHER AND/OR OBSTRUCTION TO VISIBILITY.

MIZ047>049-052>055-059>063-066>070-074>076-081>083-292100-
SOUTHEAST LOWER MICHIGAN

CITY           SKY/WX    TMP DP  RH WIND       PRES   REMARKS
ADRIAN         LGT RAIN  46  38  73 N12       30.02R
ALMA           PTSUNNY   49  36  60 W14       29.98S
ANN ARBOR      CLOUDY    47  35  63 NW10      29.99R
BAD AXE        CLOUDY    47  37  68 W15       29.94R
CARO           CLOUDY    48  35  61 W10G16    29.95R
DETROIT CITY   PTSUNNY   51  35  54 W14G22    29.98R
DETROIT        CLOUDY    47  38  71 W15G22    29.99R
FLINT          CLOUDY    49  37  63 W15       29.98R
GROSSE ILE     CLOUDY    48  37  66 W12G18    29.97S
HILLSDALE      CLOUDY    45  40  83 W10       30.01R
HOWELL         CLOUDY    44  36  73 W6        29.98S

CITY           SKY/WX    TMP DP  RH WIND       PRES   REMARKS
JACKSON        CLOUDY    48  37  65 NW13      30.00R
LAMBERTVILLE   CLOUDY    46  37  71 W10       30.01S
LANSING        CLOUDY    46  35  65 W14       30.00R
LAPEER         CLOUDY    47  36  64 W12G17    29.96R
MASON          CLOUDY    44  37  74 W10       29.99S
MONROE         CLOUDY    48  39  71 W12       29.98S HAZE
MT. CLEMENS    CLOUDY    49  35  58 W15G21    29.93R
PONTIAC        CLOUDY    45  35  68 W10       29.97R
PORT HOPE        N/A     50  36  58 W13G18    29.90R
PORT HURON     CLOUDY    48  37  66 NW15      29.95R
TRI CITIES     PTSUNNY   51  35  54 W16       29.97R
TROY           CLOUDY    50  33  52 W12G17    29.99R
SAGINAW HB     CLOUDY    48  36  61 W10G16    29.96R
$$
MIZ043>046-050>051-056>058-064>065-071>073-077>080-292100-
SOUTHWEST LOWER MICHIGAN

CITY           SKY/WX    TMP DP  RH WIND       PRES   REMARKS
BATTLE CREEK   CLOUDY    46  37  71 W14       30.03R
BENTON HARBOR  CLOUDY    46  33  60 NW8       30.06R
BIG RAPIDS     PTSUNNY   45  39  79 W9G16     29.98R
COLDWATER      CLOUDY    45  39  81 W10G18    30.03R
FREMONT        MOCLDY    45  37  72 NW9       30.01R
HOLLAND        CLOUDY    48  35  60 NW12G18   30.04R
GRAND RAPIDS   PTSUNNY   46  39  76 W13       30.01S
IONIA          CLOUDY    47  36  66 NW13      29.99S
KALAMAZOO      CLOUDY    45  39  79 W7        30.04S
LUDINGTON      MOSUNNY   44  36  72 N12       30.02S
MARSHALL       CLOUDY    46  37  70 W13       30.01R
MOUNT PLEASANT PTSUNNY   46  37  69 W7        29.97R
MUSKEGON       CLOUDY    48  34  58 NW14      30.03R
SOUTH HAVEN    CLOUDY    47  36  64 NW9G16    30.05R
$$
MIZ016>042-292100-
NORTHERN LOWER MICHIGAN

CITY           SKY/WX    TMP DP  RH WIND       PRES   REMARKS
ALPENA         PTSUNNY   46  33  60 NW10      29.91R
BEAVER ISLAND  PTSUNNY   45  37  75 NW10G17   29.98R
BELLAIRE       PTSUNNY   45  39  79 NW8       29.98R
CADILLAC       PTSUNNY   44  38  79 W10       29.96R
CHARLEVOIX     CLOUDY    44  36  72 NW14      30.00R
FRANKFORT      PTSUNNY   45  37  74 NW7       30.01R
GAYLORD        LGT RAIN  40  35  83 NW9       29.94R WCI  34
GRAYLING       MOSUNNY   45  37  74 W13       29.95R
HARBOR SPRINGS CLOUDY    44  34  68 NW12G17   29.96R
HOUGHTON LAKE  PTSUNNY   44  36  73 NW14G20   29.95R
MANISTEE       PTSUNNY   45  36  70 NW10G16   30.02R
OSCODA         MOSUNNY   49  36  60 W16G22    29.91R
PELLSTON       CLOUDY    45  36  70 NW15      29.95
ROGERS CITY    CLOUDY    45  37  76 NW12G21   29.92R
TRAVERSE CITY  LGT RAIN  44  39  82 NW10      29.98R
$$
MIZ007>008-015-292100-
EASTERN UPPER MICHIGAN

CITY           SKY/WX    TMP DP  RH WIND       PRES   REMARKS
KINROSS        CLOUDY    43  36  75 NW18G26   29.91S
MACKINAC ISLAN PTSUNNY   45  35  68 NW13      29.94R
NEWBERRY       CLOUDY    40  33  76 NW13G18   29.96R WCI  33
S. S. MARIE    CLOUDY    42  33  70 NW14G22   29.91R
MUNISING         N/A     43  36  76 NW16      30.00R
$$
MIZ004>006-011>014-085-292100-
CENTRAL UPPER MICHIGAN

CITY           SKY/WX    TMP DP  RH WIND       PRES   REMARKS
MANISTIQUE     CLOUDY    43  37  79 NW8G17    29.99R
ESCANABA       CLOUDY    46  34  61 W13       30.00R
MENOMINEE      CLOUDY    48  32  53 N10       30.01R
SAWYER-GWINN   CLOUDY    41  34  75 NW9       29.99R
$$
MIZ001>003-009>011-084-292100-
WESTERN UPPER MICHIGAN

CITY           SKY/WX    TMP DP  RH WIND       PRES   REMARKS
IRON MOUNTAIN  PTSUNNY   47  33  58 W8        30.00S
HOUGHTON       CLOUDY    41  30  65 NW15      30.01R
COPPER HARBOR    N/A     42  33  70 N17       30.01R
IRONWOOD       CLOUDY    41  34  75 W10       30.04R
$$

ABBREVIATIONS USED IN REMARKS
   TC - TEMPERATURE IN CELSIUS
  WCI - WIND CHILL INDEX
   HX - HEAT INDEX
  VSB - VISIBILITY




USA.gov is the U.S. government's official web portal to all federal, state and local government web resources and services.